Location: Windsor
(43.2292°N, 89.3015°W)
Time: 10:49:56
(UTC+00:00)

Oscar 19 - Visible Passes

Search period start: 29 June 2022 00:00
Search period end: 09 July 2022 00:00
Orbit: 772 x 790 km, 98.8° (Epoch: 28 June)

Date Brightness Start Highest point End Pass type
(mag) Time Alt. Az. Time Alt. Az. Time Alt. Az.
29 Jun 13.0 08:15:38 10° NE 08:18:41 16° E 08:21:44 10° SE visible
30 Jun 11.0 09:21:19 10° NNE 09:26:25 65° ESE 09:31:29 10° S visible
01 Jul 12.1 08:49:40 10° NNE 08:54:16 33° E 08:58:50 10° SSE visible
02 Jul 13.0 08:18:41 10° NE 08:21:57 17° E 08:25:11 10° SE visible
03 Jul 10.9 09:24:31 10° NNE 09:29:39 69° ESE 09:34:44 10° S visible
04 Jul 12.0 08:52:49 10° NNE 08:57:30 35° E 09:02:08 10° SSE visible
05 Jul 13.0 08:21:46 10° NE 08:25:12 18° E 08:28:37 10° SE visible
06 Jul 10.9 09:27:44 10° NNE 09:32:52 73° ESE 09:37:58 10° S visible
07 Jul 11.9 08:56:00 10° NNE 09:00:44 37° E 09:05:27 10° SSE visible
08 Jul 12.9 08:24:51 10° NE 08:28:27 19° E 08:32:02 10° SE visible
